K0HYD Weather Reports


Display with metric or nautical units.
time (UTC)temp
F
wind
direction
speed
MPH
gust
MPH
rain 1hr
in
rain 24hr
in
rain mn
in
humidity
%
barometer
mb
20260905082526 80 143 0.0 0.0 0.00 0.00 0.00 68 1010.7
20260905081025 81 148 0.0 1.0 0.00 0.00 0.00 67 1010.5
20260905075524 81 140 0.0 1.0 0.00 0.00 0.00 67 1010.6
20260905074023 82 193 0.0 1.0 0.00 0.00 0.00 66 1010.6
20260905072523 82 129 0.0 5.0 0.00 0.00 0.00 66 1010.5
20260905065520 83 148 0.0 4.0 0.00 0.00 0.00 65 1010.3
20260905064019 83 169 0.0 3.0 0.00 0.00 0.00 64 1010.1
20260905062518 83 153 0.0 2.0 0.00 0.00 0.00 64 1010.1
20260905061017 84 116 0.0 5.0 0.00 0.00 0.00 63 1010.0
20260905055517 84 126 1.0 5.0 0.00 0.00 0.00 63 1009.8
20260905054016 84 152 0.0 4.0 0.00 0.00 0.00 62 1009.9
20260905052515 84 117 0.0 6.0 0.00 0.00 0.00 62 1009.9
20260905051014 85 139 0.0 6.0 0.00 0.00 0.00 62 1010.0
20260905045513 85 131 0.0 5.0 0.00 0.00 0.00 62 1010.1
20260905044012 85 132 0.0 5.0 0.00 0.00 0.00 62 1010.3
20260905042511 85 140 0.0 1.0 0.00 0.00 0.00 61 1010.5
20260905035509 85 140 0.0 5.0 0.00 0.00 0.00 61 1010.3
20260905034008 85 150 0.0 1.0 0.00 0.00 0.00 61 1010.4
20260905032507 85 142 0.0 1.0 0.00 0.00 0.00 61 1010.5
20260905025505 86 132 0.0 1.0 0.00 0.00 0.00 59 1010.1
20260905024004 86 145 0.0 1.0 0.00 0.00 0.00 59 1009.9
20260905022503 87 150 0.0 1.0 0.00 0.00 0.00 58 1009.5
20260905021002 87 148 0.0 1.0 0.00 0.00 0.00 57 1009.2
20260905015501 88 153 0.0 0.0 0.00 0.00 0.00 55 1009.0
20260905014000 89 151 0.0 0.0 0.00 0.00 0.00 54 1008.7
20260905012459 90 147 0.0 1.0 0.00 0.00 0.00 52 1008.6
20260905010958 91 146 0.0 1.0 0.00 0.00 0.00 50 1008.7
20260905005457 92 145 0.0 5.0 0.00 0.00 0.00 49 1008.4
20260904230951 98 117 0.0 6.0 0.00 0.00 0.00 43 1008.2
20260904225450 98 158 5.0 6.0 0.00 0.00 0.00 41 1008.3
20260904223949 99 181 3.0 6.0 0.00 0.00 0.00 41 1008.2
20260904222448 99 167 4.0 7.0 0.00 0.00 0.00 42 1008.2
20260904215446 99 172 0.0 9.0 0.00 0.00 0.00 42 1008.1
20260904212444 98 106 1.0 7.0 0.00 0.00 0.00 42 1008.3
20260904205442 99 122 0.0 7.0 0.00 0.00 0.00 43 1008.6
20260904203941 100 138 4.0 12.0 0.00 0.00 0.00 41 1008.8
20260904202440 99 161 0.0 6.0 0.00 0.00 0.00 43 1008.9
20260904200939 99 105 0.0 7.0 0.00 0.00 0.00 44 1008.9
20260904195438 99 169 1.0 6.0 0.00 0.00 0.00 43 1008.9
20260904192436 97 204 0.0 10.0 0.00 0.00 0.00 45 1009.3
20260904185434 97 166 0.0 12.0 0.00 0.00 0.00 45 1009.5
20260904180932 95 131 2.0 6.0 0.00 0.00 0.00 51 1010.0
20260904175431 95 174 4.0 7.0 0.00 0.00 0.00 51 1010.1
20260904173929 94 120 3.0 7.0 0.00 0.00 0.00 53 1010.4
20260904172428 93 166 0.0 6.0 0.00 0.00 0.00 55 1010.5
20260904170927 92 169 0.0 7.0 0.00 0.00 0.00 56 1010.7
20260904165426 92 122 5.0 6.0 0.00 0.00 0.00 57 1010.7
20260904163926 90 200 0.0 6.0 0.00 0.00 0.00 59 1010.8
20260904162425 89 142 0.0 7.0 0.00 0.00 0.00 60 1010.8
20260904160924 88 188 2.0 6.0 0.00 0.00 0.00 63 1010.8
20260904155423 87 186 0.0 6.0 0.00 0.00 0.00 64 1010.8
20260904153922 87 198 4.0 6.0 0.00 0.00 0.00 64 1010.7
20260904152421 86 169 5.0 7.0 0.00 0.00 0.00 66 1010.8
20260904150920 85 152 2.0 6.0 0.00 0.00 0.00 68 1011.0
20260904143918 82 137 4.0 6.0 0.00 0.00 0.00 72 1011.0
20260904142417 81 166 4.0 6.0 0.00 0.00 0.00 75 1011.1
20260904140916 80 150 0.0 11.0 0.00 0.00 0.00 77 1011.1
20260904133914 77 212 1.0 6.0 0.00 0.00 0.00 82 1011.0
20260904130912 75 149 0.0 4.0 0.00 0.00 0.00 85 1010.8
20260904125411 75 142 3.0 3.0 0.00 0.00 0.00 86 1010.7
20260904122409 74 158 0.0 1.0 0.00 0.00 0.00 86 1010.3
20260904120908 74 165 0.0 1.0 0.00 0.00 0.00 86 1010.1
20260904115407 74 131 0.0 1.0 0.00 0.00 0.00 86 1010.1
20260904113907 74 154 0.0 5.0 0.00 0.00 0.00 86 1010.0
20260904112406 74 134 0.0 1.0 0.00 0.00 0.00 85 1010.0
20260904110905 74 142 0.0 2.0 0.00 0.00 0.00 85 1010.0
20260904103903 75 136 0.0 4.0 0.00 0.00 0.00 84 1010.0
20260904102401 75 143 0.0 1.0 0.00 0.00 0.00 83 1010.0
20260904095400 76 140 0.0 1.0 0.00 0.00 0.00 82 1009.9
20260904093859 76 190 0.0 3.0 0.00 0.00 0.00 81 1009.8
20260904092358 76 147 0.0 4.0 0.00 0.00 0.00 80 1009.5
20260904085356 77 203 0.0 5.0 0.00 0.00 0.00 79 1009.4
20260904083855 78 145 0.0 4.0 0.00 0.00 0.00 78 1009.5